Kezdőlap
METAR-TAF:

METAR-TAF

Repülőterek :

Langlade County Airport

Antigo, Wisconsin, Amerikai Egyesült Államok

földrajzi szélesség: 45-09-15N, földrajzi hosszúság: 89-06-39W, magasság: 464 m

Jelenlegi meteorológiai megfigyelések

A jelentés 19 perccel ezelõtt készült, 02:35 UTC
Kelet-északkeleti szél 4 kt
Hőmérséklet 10°C
Páratartalom 100%
Légköri nyomás 1010 hPa
Látótávolság: 16.1 km
Borult 500 lábon

METAR: KAIG 260235Z AUTO 07004KT 10SM OVC005 10/10 A2982 RMK AO2 T00950095

Idő: 21:54 (02:54 UTC)


TAF: hiányzik

Meteorológiai megfigyelések és előrejelzések több, mint 4000 repülőtéren (METAR és TAF jelentéseket).

A térképen piros és sárga pontok jelzik az elérhető meteorológiai állomásokat.

Mozgassa az egeret a pont fölött, hogy megjelenjen az állomás neve.

Azután kattintson az időjárási megfigyelések és előrejelzések megtekintéséhez.

A térkép megváltoztatása: kattintson a fekete keresztel jelölt zöld gombra ráközelítéshez, a vonallal jelölt zöld gombra távolításhoz, vagy a zöld nyilakra a szomszédos térképek eléréséhez.


METAR-TAF: